Theta_e
321 322 322 321 320 320 319 318 317 315 313 319 314 316 312 311 310 323 324 325 322 316 307 312 311 307 309 314 313 314 313 312 313 311 313 308 309 308 307 308 306 309 309 310 307 302 299 300 297 299 302 302 304 305 305 306 305 306 300 304 303 325 300 297 299 302 304 306 307 308 309 308 305 304 304 303 299 298 296 292 301 300 302 299 297 296 298
320 321 322 321 320 320 320 319 318 316 313 316 316 311 309 309 310 314 323 326 321 311 303 302 302 305 310 311 311 314 312 312 311 311 309 310 309 306 311 312 311 309 314 313 307 308 300 302 300 300 302 301 306 306 306 309 305 305 301 300 304 303 300 297 295 292 293 296 300 301 302 306 301 301 299 304 304 303 303 305 304 301 302 303 298 294 299
320 321 322 321 320 320 320 319 318 316 315 315 315 308 309 308 313 313 317 326 318 307 308 305 304 306 306 307 306 308 310 314 314 308 312 316 314 314 311 313 312 312 314 311 312 308 302 299 302 302 303 304 309 305 307 309 305 309 311 331 307 301 304 298 292 291 290 290 290 291 294 297 299 302 308 307 304 304 305 300 301 293 303 303 298 298 302
320 321 321 321 320 320 320 319 318 317 316 314 317 313 311 308 302 311 315 318 315 312 314 311 307 305 306 305 307 309 309 314 316 315 315 317 316 313 319 313 314 310 309 308 308 309 311 307 302 301 301 305 307 307 307 308 307 326 345 335 311 303 306 302 297 293 292 294 296 302 308 299 303 308 310 309 305 302 304 303 300 299 300 300 303 305 305
320 320 320 321 321 321 320 319 318 318 317 315 315 314 311 311 306 309 308 316 311 312 312 311 312 307 311 303 309 309 311 313 314 318 313 317 316 316 315 320 311 310 309 307 308 310 309 310 306 304 303 304 306 307 306 316 318 341 325 322 306 303 298 299 305 302 301 304 303 304 305 302 307 308 309 311 307 304 305 301 300 305 303 296 305 307 306
318 318 319 320 321 322 321 318 316 316 316 313 315 308 312 305 311 315 318 307 302 308 308 313 312 313 313 308 312 310 309 311 309 315 317 317 317 313 315 314 314 312 310 310 306 308 307 307 305 308 304 307 305 304 306 306 327 319 308 314 305 301 299 300 304 302 304 304 303 309 310 310 309 311 311 310 309 306 304 305 307 307 303 301 305 309 308
318 318 318 319 319 320 321 319 317 314 313 312 317 307 312 312 313 315 320 311 313 312 313 316 313 311 311 310 315 309 309 311 313 316 314 316 317 316 310 311 312 313 313 310 308 309 303 304 311 310 307 303 303 301 304 306 308 306 306 307 310 302 299 303 303 305 304 305 310 313 311 311 311 310 311 311 310 308 308 308 309 308 308 312 314 314 314
318 318 318 318 318 319 320 320 318 315 312 315 315 313 308 309 309 310 316 315 313 314 314 313 312 308 313 306 308 310 309 311 318 316 313 313 317 318 316 312 313 313 313 312 308 311 312 311 308 311 308 303 304 303 301 300 305 304 306 307 307 302 298 321 304 301 301 306 312 312 312 311 308 310 311 312 313 313 313 314 315 316 314 315 315 314 313
318 317 317 317 318 318 318 319 318 315 313 314 311 311 314 314 316 317 312 309 312 315 312 310 310 307 307 307 313 313 311 310 316 315 317 313 316 315 313 312 314 315 314 315 313 313 316 314 312 313 312 304 305 303 303 303 302 306 306 306 308 305 300 305 304 300 301 305 311 311 312 311 308 307 309 310 310 309 310 309 313 312 310 313 314 311 312
318 318 317 317 317 318 317 319 318 317 316 313 311 309 315 315 318 319 315 308 315 310 311 311 310 303 310 315 315 312 312 313 314 310 318 317 318 318 315 314 315 312 313 312 313 315 315 315 316 315 314 313 310 308 305 303 302 303 304 305 303 302 302 299 299 297 301 305 309 308 308 308 305 305 309 311 311 311 312 313 316 314 312 311 309 308 314
317 317 317 317 318 318 318 318 318 319 318 311 310 310 314 312 311 314 316 308 309 309 309 309 309 313 314 316 314 316 314 313 313 310 310 317 318 318 318 316 315 310 314 316 319 319 319 318 317 315 312 311 310 309 305 306 306 305 304 305 308 306 305 302 302 298 302 306 307 308 303 296 297 308 314 312 310 311 310 311 314 317 316 312 313 316 319
317 317 317 316 317 318 318 318 318 318 316 317 316 313 316 317 316 315 312 308 308 312 308 306 309 311 312 314 315 314 313 312 312 318 313 315 316 317 319 318 314 310 317 322 320 318 319 321 318 316 315 312 311 309 306 306 306 311 305 304 303 306 307 303 303 299 300 305 306 302 295 298 308 314 316 316 317 317 314 314 316 318 321 321 320 320 321
317 317 317 317 317 317 318 318 317 316 316 317 316 311 317 320 315 313 312 310 308 310 307 309 313 314 314 314 314 314 315 314 315 316 315 319 315 317 318 319 315 317 320 317 319 318 314 311 310 309 309 308 309 308 304 305 306 307 305 306 304 302 303 307 305 304 301 301 300 293 296 309 315 316 318 321 320 319 318 315 318 320 320 321 319 320 321
317 317 317 317 317 317 318 317 317 318 318 316 315 313 317 318 314 313 313 309 308 311 312 310 311 312 312 313 313 314 313 312 314 314 312 315 313 315 317 319 318 318 318 320 318 314 309 306 302 303 304 303 303 302 306 305 307 306 307 306 307 305 305 305 303 305 298 299 298 300 308 307 309 311 313 313 311 313 313 307 313 321 320 321 320 320 321
317 317 317 317 317 317 318 317 318 318 317 314 317 317 318 318 317 315 316 313 308 311 312 303 309 311 313 313 314 311 309 309 310 310 314 318 315 317 318 319 319 318 319 316 311 312 308 307 299 299 299 297 294 298 303 302 305 310 309 305 309 310 308 305 302 302 303 298 296 297 295 295 302 309 315 318 318 319 320 316 311 321 320 321 321 319 320
317 317 317 317 317 317 318 318 317 317 317 315 317 317 318 319 319 318 315 312 310 304 307 314 315 313 311 312 314 311 307 307 308 308 310 313 316 319 321 321 323 319 318 316 317 312 310 303 302 299 299 301 304 302 303 305 303 311 316 314 314 312 310 308 306 301 301 298 294 294 295 300 306 310 317 320 322 322 320 314 307 315 318 321 322 320 321
316 317 317 317 317 317 317 317 316 316 317 315 315 316 317 321 318 317 315 315 314 308 315 316 317 315 312 311 312 311 312 306 308 305 305 308 313 316 317 319 321 321 319 312 313 308 305 306 306 304 304 309 304 303 308 308 306 307 314 315 313 310 306 307 304 302 301 300 295 298 303 305 313 317 316 319 319 319 312 301 302 314 319 322 322 321 321
316 316 317 317 317 317 317 317 317 316 317 315 316 314 315 321 321 322 317 314 310 310 315 317 314 310 309 310 309 314 315 311 309 309 309 309 314 311 312 315 315 321 320 312 311 307 307 304 302 301 302 310 314 310 299 308 306 304 306 307 307 307 307 306 301 301 305 307 301 303 307 315 318 319 320 318 322 314 302 297 306 316 319 320 322 322 322
316 316 316 317 317 317 317 317 318 317 316 314 318 316 316 319 321 320 316 314 313 307 315 319 319 315 317 319 316 316 316 314 311 305 304 305 309 312 312 314 320 313 318 312 309 307 304 304 310 304 302 306 311 304 308 305 305 310 310 306 308 308 308 306 306 303 301 302 302 302 305 312 319 321 322 322 314 302 301 311 317 318 320 322 324 323 323
316 316 316 316 317 316 316 316 317 318 317 316 317 312 315 318 320 320 316 311 314 311 315 315 317 314 318 315 311 310 312 313 312 307 304 300 309 312 313 308 315 317 314 313 305 309 303 304 304 308 303 305 308 312 304 308 314 310 309 312 306 309 305 304 304 306 305 305 302 298 294 311 323 323 319 320 309 309 312 319 323 323 323 323 323 324 324
315 316 316 316 316 317 316 316 317 317 317 318 318 313 311 317 320 321 320 316 312 308 310 319 319 317 318 316 317 317 314 310 311 308 309 308 311 310 303 306 310 313 310 312 306 305 309 304 306 307 308 306 307 307 302 304 306 312 313 311 311 314 306 305 308 310 303 301 300 300 307 313 323 319 310 315 317 320 324 322 320 323 323 323 323 323 324
315 316 316 316 316 317 317 317 317 317 318 317 317 315 310 314 318 320 321 322 315 311 314 319 321 319 321 321 321 320 319 318 318 319 312 310 311 309 308 312 313 313 316 317 314 312 311 310 311 307 306 308 309 304 306 299 301 306 312 312 304 313 310 309 306 314 309 306 309 314 320 322 321 325 322 324 326 326 324 324 322 321 322 323 322 322 324
315 315 316 316 316 316 317 317 317 317 317 317 316 313 309 312 314 322 323 316 320 321 321 319 320 320 322 322 324 324 324 324 322 320 318 312 308 311 312 310 309 316 319 319 313 312 313 313 308 309 307 308 308 305 306 304 303 306 305 314 313 321 321 319 315 313 319 320 321 324 320 321 322 323 325 324 324 325 326 325 323 324 323 322 322 324 326
315 316 316 316 316 316 316 317 317 317 317 317 316 313 311 313 316 317 317 318 315 310 311 314 311 308 310 311 316 319 324 323 323 323 324 319 306 306 312 314 316 316 316 318 321 314 312 315 313 313 306 310 312 306 301 302 306 309 310 312 313 318 320 318 313 316 309 304 316 319 319 320 322 322 325 327 327 326 326 326 325 325 328 328 329 325 325
315 315 315 315 316 316 316 317 317 317 316 316 315 316 316 313 314 315 312 308 310 308 303 307 310 315 318 321 323 322 323 324 325 325 322 318 314 308 307 314 318 312 312 315 319 316 317 313 311 309 306 313 312 306 311 306 307 312 305 310 310 312 320 316 317 313 303 308 314 322 324 324 325 323 323 324 326 328 328 328 328 327 328 328 327 328 327
314 314 314 315 316 316 316 317 317 317 316 316 315 313 312 311 315 319 318 317 315 313 306 305 310 321 323 321 319 322 326 325 324 324 321 318 318 316 315 317 316 321 319 319 318 316 313 315 315 313 307 312 316 307 310 309 309 315 307 308 312 315 321 310 317 312 316 319 321 323 320 323 325 327 325 325 326 326 326 326 327 327 327 327 328 328 328
314 314 314 314 315 316 316 316 317 316 316 316 314 313 313 314 317 316 314 315 310 306 309 305 311 316 319 316 321 322 323 322 322 320 318 318 317 318 317 316 314 314 315 314 317 318 317 315 311 310 313 313 319 315 313 313 312 309 310 315 319 316 312 317 315 311 309 311 315 319 313 313 320 325 326 327 327 326 325 326 327 327 326 327 327 328 329
313 314 314 314 314 315 315 316 316 316 316 315 314 314 316 314 315 317 317 317 313 305 306 307 306 311 318 314 319 320 322 324 322 318 315 316 316 315 313 313 313 313 313 312 309 312 311 308 307 313 319 318 312 312 317 317 312 310 312 313 315 314 316 314 311 310 310 315 319 320 317 319 321 326 328 328 328 326 325 325 326 327 327 327 327 326 327
313 313 314 314 314 315 315 316 315 316 315 314 313 313 312 315 317 318 318 320 320 312 311 311 312 310 304 310 321 320 322 323 319 316 315 314 315 314 313 313 313 314 315 315 314 314 313 312 315 313 313 317 314 312 309 307 305 304 307 313 317 319 322 319 318 317 319 320 322 324 320 320 322 327 328 328 328 327 326 327 328 327 326 326 326 326 326
313 313 313 314 314 314 315 315 315 315 314 312 311 307 303 307 314 315 318 319 319 316 309 307 303 306 316 317 316 319 321 323 317 316 315 312 312 311 312 313 313 319 316 314 313 309 312 314 315 318 322 326 316 314 308 307 306 309 315 318 320 323 323 321 323 320 317 322 324 326 323 325 328 328 328 329 330 329 327 328 329 328 327 327 325 325 326
312 312 313 313 313 314 314 315 315 315 313 311 308 301 298 297 309 317 317 318 320 315 311 312 306 312 310 315 316 315 318 320 314 314 315 314 312 312 314 316 316 318 312 314 315 311 316 311 315 316 320 323 321 313 308 306 306 309 317 319 320 322 323 323 325 324 324 325 328 326 325 326 327 327 327 328 329 329 328 330 334 336 331 330 328 327 327
311 312 312 312 313 313 314 315 315 314 312 309 305 303 306 310 314 316 318 318 320 314 309 305 305 303 304 311 316 320 320 321 319 316 314 314 311 313 313 315 313 316 315 311 316 315 314 315 315 317 315 322 321 311 310 307 307 310 318 321 324 323 324 324 325 327 328 328 325 323 323 323 326 324 323 328 328 329 328 327 330 335 339 331 331 330 330
311 311 312 312 312 313 313 314 315 313 310 313 315 316 316 316 316 317 318 318 316 314 316 308 302 305 304 307 315 318 321 317 314 313 311 313 310 312 309 314 315 314 335 316 310 309 315 316 317 315 315 325 314 312 309 308 311 317 319 321 323 324 324 325 324 325 326 326 324 321 319 321 323 325 327 326 326 327 327 328 328 325 326 327 326 324 323
311 312 312 312 312 312 313 314 315 314 313 310 306 308 313 316 316 317 319 318 315 316 314 307 303 301 302 313 309 313 320 310 310 311 306 313 313 310 308 311 313 310 312 308 311 314 313 316 313 313 316 316 316 310 306 310 317 319 321 323 323 322 324 324 323 322 325 328 329 322 321 323 323 322 322 323 324 326 328 326 325 323 323 323 322 321 322
311 311 312 312 312 313 314 314 311 309 305 307 308 311 313 317 316 317 318 315 307 306 307 308 307 300 300 304 305 309 319 312 308 309 307 309 315 308 311 308 308 306 309 315 312 310 310 311 315 313 310 313 310 306 307 313 318 319 320 320 321 323 321 321 322 323 327 326 326 326 325 322 320 320 319 320 321 322 323 325 324 323 321 321 322 322 323
311 311 312 312 312 313 311 310 309 306 304 304 306 315 318 319 318 321 322 321 314 307 306 306 305 299 300 298 299 309 318 311 312 311 311 310 309 312 311 307 303 305 315 309 304 309 307 316 312 304 311 308 306 307 310 317 318 319 319 320 322 321 321 320 321 325 325 326 326 326 325 322 321 320 320 321 323 322 323 323 323 324 323 321 321 322 323
311 311 312 311 310 306 303 304 310 308 305 310 315 323 322 322 320 321 318 315 318 320 309 305 302 302 304 303 308 313 312 305 310 307 310 305 302 311 307 308 302 307 309 307 306 306 308 321 309 305 307 305 309 313 314 320 320 319 318 320 321 323 322 321 325 325 326 325 325 324 324 323 323 323 322 321 321 323 323 323 323 323 321 321 323 324 324
311 311 306 304 303 299 299 303 305 310 315 315 318 311 311 313 305 308 310 308 313 316 310 308 302 305 308 305 302 312 311 306 311 305 306 310 305 305 309 307 306 307 299 302 306 312 312 311 307 303 306 308 313 318 318 322 324 323 322 321 323 325 323 323 325 322 321 320 319 321 323 322 322 321 320 320 322 323 324 326 325 325 325 326 325 326 327
308 305 304 304 301 298 299 302 313 317 313 315 314 306 303 308 304 301 303 308 309 305 310 307 304 306 306 304 307 314 313 307 304 309 303 310 306 301 308 300 306 307 301 302 305 314 303 304 307 305 303 308 312 314 322 324 324 324 323 323 324 325 324 325 323 322 320 320 321 322 321 320 320 320 321 321 323 327 327 327 327 327 327 327 326 326 326
304 300 300 300 298 302 312 315 318 315 311 304 306 305 298 305 300 296 306 301 301 307 309 302 308 307 308 306 305 305 315 308 303 304 306 307 311 302 304 304 306 303 298 297 301 311 302 300 303 302 301 306 309 315 321 325 324 324 324 324 325 327 326 326 324 324 323 322 325 327 325 323 323 324 323 322 324 324 325 326 327 328 327 326 328 326 327
302 303 302 299 304 309 310 315 313 309 304 301 301 302 301 296 302 305 302 298 298 302 309 306 307 306 309 310 308 305 313 317 313 311 310 305 313 309 301 300 308 300 298 298 306 307 303 301 302 300 301 305 309 316 321 323 324 325 326 327 328 327 326 326 328 329 326 325 326 328 327 325 325 326 327 325 325 326 327 328 328 328 326 329 331 328 330
305 305 308 310 311 312 312 309 307 301 300 303 297 292 297 299 303 301 303 295 298 305 305 306 302 303 304 308 307 310 310 316 313 312 308 305 312 305 300 305 305 298 295 302 309 304 301 298 298 300 304 309 312 317 319 322 324 324 325 327 329 326 324 324 325 327 329 329 328 326 326 326 325 325 327 327 325 326 327 328 329 330 330 330 330 334 334
312 312 312 308 308 305 308 298 302 301 290 293 293 288 295 293 296 296 298 303 312 306 305 313 309 311 312 314 309 313 311 314 310 310 309 307 311 310 304 303 300 296 301 309 304 300 298 297 298 300 306 311 313 314 317 322 324 326 327 327 325 324 322 321 323 325 326 327 328 330 330 326 325 325 329 329 329 330 330 333 335 333 331 331 333 335 334
309 309 304 304 300 302 303 288 303 298 290 293 290 287 292 291 296 300 298 299 303 303 305 303 305 306 302 309 309 309 312 312 314 311 308 312 306 303 302 299 298 305 308 304 301 296 297 299 301 302 308 313 315 314 315 320 322 324 326 326 325 324 323 323 322 322 324 327 331 332 332 332 333 331 331 332 332 331 331 333 336 335 335 335 335 335 335
302 300 300 296 290 298 296 285 299 294 285 290 294 293 294 291 295 299 298 304 305 302 306 306 306 306 305 309 310 312 311 307 313 307 305 306 303 303 300 299 304 305 300 297 299 299 301 300 304 308 316 316 317 317 317 321 322 324 324 323 322 321 321 321 321 323 324 324 327 329 330 331 331 329 330 332 334 335 335 335 336 337 334 335 335 335 336
298 293 293 286 285 290 290 287 290 288 296 297 295 295 295 297 300 300 305 307 304 306 305 307 307 308 307 309 305 305 309 309 303 304 307 306 301 299 303 311 306 299 298 296 296 294 296 299 304 306 316 318 319 319 320 322 323 323 322 320 321 321 320 321 322 323 325 325 326 327 330 329 331 331 331 332 332 333 334 335 336 335 335 335 335 336 337
300 302 297 295 286 291 299 288 290 295 298 298 299 300 300 302 304 307 307 308 306 308 308 309 309 308 305 305 307 308 309 309 304 306 306 301 299 302 307 301 297 296 295 294 296 296 300 301 305 310 315 318 320 320 320 321 321 321 320 320 321 321 322 323 324 324 323 325 328 330 330 331 331 332 333 332 331 333 336 336 335 336 336 335 336 337 335
291 301 299 287 285 291 292 296 299 300 303 301 300 302 306 308 305 304 308 310 310 310 309 309 307 309 308 312 309 303 304 306 304 304 306 305 305 302 298 298 297 298 298 297 297 300 302 306 312 316 318 319 320 320 320 320 320 320 320 320 320 321 323 324 323 323 323 324 327 330 331 332 332 332 332 333 334 334 336 336 336 336 336 336 336 335 334
302 299 290 292 298 296 297 301 298 296 298 302 305 305 306 305 304 306 308 310 309 310 311 309 308 307 303 306 305 303 302 305 300 299 305 302 298 294 295 293 294 294 300 300 299 304 313 316 319 319 321 320 319 320 320 320 321 321 321 321 322 322 323 325 325 325 325 328 330 331 331 332 333 333 333 333 333 333 335 336 336 335 335 334 334 334 334
298 295 302 299 298 297 301 302 299 296 300 302 303 304 305 306 306 307 310 312 313 311 310 310 310 304 303 304 297 301 301 303 303 302 299 297 298 299 297 294 295 296 298 305 309 314 316 319 318 319 320 321 322 320 320 322 327 323 322 324 325 325 325 325 325 325 326 329 331 331 332 333 332 332 332 332 333 334 333 333 333 333 333 334 334 334 334
304 301 300 307 300 298 300 295 293 294 298 301 303 305 306 305 308 309 315 313 311 309 307 301 302 301 296 299 297 290 299 305 302 299 297 298 301 298 296 295 298 301 309 313 315 317 319 320 320 319 320 320 320 321 322 323 321 321 322 323 323 324 325 327 327 328 328 331 333 338 331 331 332 333 334 334 333 333 334 335 335 333 334 334 334 334 332
292 291 297 303 305 304 303 303 303 303 304 306 306 306 309 306 310 310 314 312 308 305 303 307 304 294 292 292 298 301 304 301 298 300 298 301 303 299 299 299 305 309 315 316 318 320 323 324 324 324 323 324 324 322 324 324 323 324 325 326 326 326 326 327 328 329 330 331 331 331 332 332 333 334 334 332 331 330 329 329 334 333 334 332 333 332 331
Wind_Speed
13 12 10 10 11 12 13 15 15 14 17 9 9 5 3 3 6 10 15 12 1 0 3 2 2 3 5 5 10 11 9 6 10 9 13 8 2 0 2 2 3 1 2 2 3 4 4 6 4 5 6 4 11 4 8 5 7 7 2 1 2 6 1 0 5 7 6 6 6 2 1 1 1 1 2 3 2 4 4 6 8 7 3 6 3 2 3
13 13 11 11 11 11 12 14 13 13 13 6 7 2 3 3 5 9 2 2 3 3 3 3 3 5 7 5 10 10 9 10 11 8 3 1 3 2 2 4 2 2 0 1 4 2 1 3 4 2 1 2 4 7 11 9 2 5 4 4 2 2 2 3 1 2 3 7 5 4 5 1 1 1 4 2 0 7 5 7 2 8 3 8 8 6 2
12 12 11 11 11 11 11 12 13 12 11 8 4 4 4 5 4 7 9 4 3 4 5 3 4 3 8 10 15 14 7 7 10 3 1 0 2 1 1 1 4 0 0 3 2 4 3 3 3 2 2 1 1 7 8 6 4 2 4 6 5 2 2 3 1 2 2 2 5 4 5 6 1 3 7 6 2 11 9 6 2 5 0 4 6 2 2
11 11 11 11 10 10 11 12 13 12 11 10 4 4 3 4 4 5 3 4 2 2 5 3 4 6 7 11 8 5 10 10 4 7 2 6 1 3 1 2 2 3 6 6 5 5 3 3 3 1 1 2 1 5 5 4 2 3 8 3 4 1 1 3 4 6 5 3 3 5 2 2 4 4 11 5 5 2 4 6 7 7 4 5 2 6 8
11 11 11 10 10 10 11 12 12 13 12 10 4 3 2 2 1 4 7 7 4 6 2 5 5 4 5 4 4 10 9 7 6 7 2 6 5 3 4 2 6 6 8 4 3 4 6 8 7 3 4 1 1 2 7 1 4 5 2 3 4 1 1 2 3 4 7 7 3 5 3 6 3 7 2 9 6 10 11 8 8 9 12 4 1 6 9
10 12 12 11 10 11 11 11 12 13 13 11 3 3 1 1 1 3 3 2 3 8 7 8 10 13 8 4 5 8 6 4 3 5 3 3 4 4 6 4 3 7 5 3 4 8 4 4 5 10 3 0 2 3 1 2 2 6 1 1 3 2 1 3 2 2 6 0 2 15 17 8 7 6 10 10 7 9 8 4 6 3 9 12 3 6 6
11 11 12 12 12 12 12 11 12 13 16 7 2 3 4 2 4 2 8 3 3 4 12 12 9 12 7 3 3 4 3 3 2 1 4 4 4 4 2 4 3 4 5 6 1 3 5 7 4 3 9 2 1 2 1 1 3 4 0 0 1 2 1 1 3 2 2 7 16 21 17 11 13 13 13 15 15 12 13 8 6 10 10 12 14 14 11
11 10 11 11 12 12 12 11 12 12 17 6 1 1 2 5 5 5 7 3 7 9 7 6 7 9 6 3 4 5 8 8 5 2 1 2 4 0 0 6 7 3 5 4 2 2 1 1 3 7 5 8 2 0 2 2 1 2 0 0 3 4 2 0 2 2 2 7 12 15 17 17 15 13 13 16 18 16 13 14 17 17 12 12 17 17 10
11 10 10 10 11 11 12 11 11 12 10 3 4 3 3 5 4 5 7 7 5 6 5 5 7 6 5 5 9 11 12 16 5 3 2 3 2 2 4 4 6 4 5 3 2 3 0 1 6 11 6 6 4 1 3 3 4 2 1 0 2 2 2 1 1 1 5 3 16 17 16 14 14 11 11 11 13 13 6 8 1 11 11 11 14 12 7
11 10 9 9 9 9 11 9 10 11 9 0 2 2 4 4 3 5 3 3 4 5 5 5 5 2 4 7 10 7 12 18 8 3 5 2 3 4 4 3 0 3 4 5 4 5 4 9 10 9 8 8 6 2 3 4 6 4 3 1 1 2 1 2 3 6 4 4 11 16 15 15 12 7 9 11 9 10 11 7 7 4 6 11 10 6 6
10 9 9 8 8 8 8 8 9 9 6 2 1 2 4 4 6 5 2 3 4 4 7 4 4 4 9 10 15 13 13 15 10 3 3 2 3 2 3 4 1 2 1 3 5 3 6 8 10 4 3 3 3 5 4 6 3 5 4 2 0 1 2 0 1 5 1 5 9 9 11 9 1 4 2 6 8 11 12 5 4 4 4 5 5 7 4
10 9 9 8 7 7 7 7 7 7 4 3 3 2 2 4 5 3 3 3 4 4 4 4 5 7 11 15 11 11 14 18 14 5 2 3 4 4 4 1 2 3 3 4 3 4 4 2 4 6 5 6 4 7 3 7 5 1 4 4 3 3 2 2 2 5 5 1 11 14 7 2 3 0 3 12 14 16 14 10 8 10 11 12 11 8 7
10 10 10 10 9 7 6 6 5 6 5 3 2 3 2 4 4 3 4 3 4 5 7 8 10 10 10 13 13 12 14 12 14 11 2 0 3 3 1 1 4 3 3 4 6 5 5 2 4 3 3 6 4 5 6 7 6 6 2 4 3 5 3 0 3 2 2 4 4 5 2 1 3 3 4 8 15 14 16 11 6 5 7 11 10 7 7
10 10 10 10 10 8 6 5 5 6 6 4 4 3 3 4 3 3 2 3 4 3 5 9 7 10 14 14 12 15 12 13 15 9 9 6 6 4 3 3 3 4 4 3 5 4 4 6 3 6 8 6 4 3 1 6 8 6 4 3 4 6 3 6 3 3 4 1 7 8 4 5 3 3 3 1 5 6 13 7 0 1 3 9 9 7 6
10 10 10 10 9 9 5 5 5 5 7 5 5 4 4 4 4 3 3 3 5 6 3 5 6 12 12 11 12 12 9 10 12 10 9 5 3 6 4 6 8 6 3 4 5 4 2 1 3 4 4 6 3 3 0 2 3 7 4 2 5 2 7 3 7 3 4 7 6 3 4 2 2 7 4 3 6 8 12 13 2 1 1 6 11 9 7
10 10 10 10 9 8 6 5 4 5 6 6 4 5 4 4 3 4 4 3 3 5 0 2 7 8 8 6 10 7 8 7 8 7 8 8 6 15 14 13 11 4 3 3 1 2 3 2 1 2 2 2 2 1 3 3 1 5 9 8 12 10 5 8 10 3 3 6 6 2 3 2 4 7 0 5 9 14 8 10 3 3 5 6 10 9 7
11 10 10 10 9 8 6 6 5 5 6 5 4 4 4 4 3 3 3 3 3 7 3 9 6 5 3 6 10 6 8 7 8 5 6 8 9 8 13 14 11 3 1 2 2 2 3 3 1 1 3 2 1 0 2 3 3 5 10 8 13 9 5 6 7 5 2 6 5 3 1 1 3 4 3 6 4 3 6 4 4 6 6 7 9 9 8
12 11 10 9 9 9 7 5 6 5 5 4 3 5 5 3 4 2 4 4 4 6 4 2 9 4 5 4 7 7 5 5 5 4 0 5 3 6 11 9 7 6 2 1 0 2 2 1 4 2 2 3 0 2 3 2 1 1 2 3 2 5 4 6 5 3 6 10 2 2 2 3 3 4 6 4 1 5 5 3 6 6 7 5 7 9 6
12 12 11 10 9 9 8 8 7 6 4 6 4 4 5 5 5 3 2 4 3 7 5 10 5 6 6 7 6 6 4 6 6 3 5 6 3 11 15 9 2 4 7 1 2 1 2 1 1 1 2 5 3 3 1 4 1 1 1 3 7 5 2 2 5 7 4 2 7 2 2 3 3 5 5 3 2 2 5 3 3 10 8 6 8 9 5
12 12 11 10 10 9 9 9 8 6 5 5 2 4 6 7 6 4 3 5 3 8 8 9 6 13 7 6 5 4 9 5 1 2 3 3 6 13 7 4 5 4 6 3 2 0 3 1 1 1 2 0 1 3 4 1 0 1 0 0 4 1 3 1 2 1 4 5 5 3 3 3 1 4 3 4 4 5 5 3 2 9 11 9 5 7 5
12 11 11 10 9 9 8 8 8 7 5 4 3 4 5 3 4 5 5 5 5 8 7 3 3 7 7 10 9 9 7 9 6 4 3 6 7 4 3 1 6 3 2 2 1 1 1 0 0 1 2 2 1 3 1 1 3 2 2 2 3 3 5 1 0 2 6 2 2 2 4 4 4 3 4 3 4 7 7 8 6 4 9 8 6 4 5
12 12 12 11 10 9 9 8 7 6 4 4 4 3 5 5 4 5 5 5 6 7 4 9 10 12 13 14 15 13 13 14 15 9 7 8 3 1 4 3 4 1 1 1 2 2 4 1 0 2 2 1 3 3 4 4 2 3 3 4 4 3 3 4 6 1 3 3 4 4 3 4 4 1 5 4 4 5 6 10 8 8 3 3 8 7 6
12 11 11 11 10 10 9 8 6 6 5 5 2 3 6 4 5 6 6 5 3 5 5 7 8 12 13 18 17 14 14 14 14 11 10 6 8 2 3 3 3 2 2 2 1 2 3 1 0 4 2 0 2 2 4 2 2 1 2 4 6 2 4 3 8 3 2 3 1 1 2 3 5 5 4 8 5 2 7 10 7 3 4 4 8 6 7
12 11 11 11 11 10 9 9 8 7 6 5 4 4 5 4 4 6 5 4 2 5 5 5 3 7 7 15 10 1 7 8 11 15 11 8 7 6 4 1 1 2 1 1 2 2 3 1 3 2 2 2 3 4 3 4 2 0 3 2 2 0 0 3 7 2 5 2 3 3 2 3 4 5 5 6 5 3 4 8 5 4 5 6 6 7 5
12 11 11 11 11 11 10 9 8 7 6 6 4 4 5 6 4 3 3 3 1 1 4 4 5 12 14 12 11 14 11 8 7 11 10 10 9 6 6 5 2 3 7 8 1 2 1 2 3 2 2 1 4 1 1 5 1 1 4 1 1 2 1 8 3 3 3 5 5 0 2 2 2 4 6 6 6 7 6 6 5 6 6 7 6 9 8
13 12 12 11 11 11 10 10 9 8 7 6 5 3 4 6 3 3 5 4 4 3 4 5 7 5 4 9 10 11 12 12 11 7 11 10 8 9 8 4 6 1 2 3 3 3 2 2 1 1 3 1 2 3 1 3 5 1 7 5 5 4 2 3 3 4 1 2 0 1 5 5 3 3 3 5 7 8 6 6 8 10 11 10 9 8 7
14 13 12 11 10 10 10 10 9 8 7 6 4 4 6 6 4 5 4 3 1 3 4 5 6 8 6 11 13 10 10 10 9 8 9 8 7 5 4 4 6 6 5 7 2 2 1 1 1 0 1 1 2 1 3 1 2 2 2 0 0 5 3 1 6 7 5 7 8 7 8 2 2 2 5 5 5 10 8 8 9 11 11 10 12 9 8
14 14 13 12 11 9 9 9 9 8 7 6 4 5 5 7 6 6 7 6 5 3 3 4 6 9 9 13 11 8 9 8 9 9 7 7 7 5 4 4 4 3 3 3 7 4 2 2 1 2 1 0 2 1 0 1 3 3 1 3 2 6 6 7 7 8 7 8 7 6 4 6 6 7 4 5 6 10 11 10 9 8 9 10 12 10 10
15 14 13 11 10 9 8 7 8 7 6 4 3 5 6 8 8 8 8 6 3 4 4 5 4 3 3 7 10 12 10 8 7 8 6 5 5 5 5 5 5 3 2 2 2 2 2 4 2 1 1 2 4 1 1 2 2 3 3 3 3 3 9 10 11 5 2 6 8 7 6 8 5 5 6 6 5 10 10 7 8 9 8 8 9 10 12
14 13 13 11 10 9 9 9 9 8 6 3 2 3 3 4 7 9 9 7 4 3 3 2 4 4 4 6 8 4 6 8 6 8 6 4 4 4 6 4 4 3 3 2 0 3 3 2 3 1 1 0 1 2 2 2 2 2 3 3 5 2 5 4 8 8 5 4 6 6 6 6 8 8 6 6 5 9 9 8 7 8 8 10 11 8 8
14 13 13 12 11 10 9 9 9 8 7 4 3 4 4 4 1 2 9 8 6 3 4 2 5 6 8 4 7 11 12 8 4 6 6 6 5 5 4 3 3 2 2 2 0 4 1 2 1 2 1 3 3 2 3 3 2 1 1 2 4 9 8 5 2 1 7 6 5 4 5 7 5 5 4 5 5 6 5 4 6 9 9 10 10 9 7
15 14 12 12 11 11 10 10 9 8 5 7 8 5 3 1 0 4 4 4 8 4 4 1 2 2 3 5 3 3 6 7 4 3 2 3 5 4 4 4 3 2 3 2 2 2 1 3 1 2 0 1 2 2 3 4 5 4 3 1 1 4 4 5 4 3 5 7 9 8 7 4 8 11 7 7 6 5 9 8 9 9 10 9 7 7 7
14 12 12 11 11 11 10 10 10 8 5 6 9 14 20 20 14 7 6 2 5 3 2 2 2 1 2 5 5 5 4 3 3 4 3 2 3 2 3 1 1 1 2 1 1 2 2 0 0 0 2 1 1 1 2 3 5 5 5 4 4 4 4 4 4 4 5 4 8 11 11 11 8 6 8 7 8 10 10 9 8 8 9 10 8 7 7
14 12 11 11 11 10 10 11 10 9 8 5 6 8 12 17 9 3 5 2 2 2 2 2 2 2 5 5 3 8 3 5 4 5 3 2 2 4 3 2 0 1 2 4 4 0 4 2 1 1 2 1 1 3 1 2 4 6 4 4 3 2 3 4 4 4 3 2 1 4 6 7 7 7 8 7 7 8 9 9 10 11 10 10 9 8 7
13 11 10 9 9 9 9 9 6 5 5 5 5 6 9 11 6 6 4 3 5 3 4 3 1 2 2 3 2 6 1 3 5 5 6 4 1 4 2 2 1 2 4 0 1 1 0 2 3 3 4 1 1 1 2 4 4 4 4 4 2 4 5 4 1 1 2 3 6 7 9 11 12 9 9 8 8 6 8 7 9 13 10 8 8 7 6
13 11 9 8 8 7 5 7 6 6 6 5 4 5 10 8 9 7 7 5 5 2 4 3 3 5 3 3 3 3 1 3 4 3 2 2 2 0 1 3 2 6 2 2 2 1 2 3 2 2 1 1 4 3 5 7 8 7 9 8 7 9 7 8 6 2 4 5 9 8 9 10 12 10 7 6 7 6 8 8 6 8 10 9 7 6 6
11 10 9 8 4 4 5 3 3 5 5 5 4 0 7 7 1 1 3 4 4 3 3 2 5 7 7 5 2 4 2 2 3 3 1 3 4 1 2 2 5 2 1 1 1 3 6 1 2 1 2 4 3 6 7 9 10 9 6 7 7 4 5 4 5 8 8 7 9 9 8 8 7 6 6 7 7 8 9 9 10 11 11 10 7 7 7
11 9 5 5 4 4 4 5 5 5 10 8 7 4 4 2 3 2 2 5 3 4 4 1 5 3 1 2 5 5 2 3 2 3 2 2 3 2 2 2 4 2 4 2 5 6 1 0 2 4 3 4 4 3 4 6 9 7 7 7 6 5 7 6 6 9 8 6 5 6 7 8 6 5 9 7 8 9 8 8 7 9 10 9 8 7 6
9 5 4 4 3 4 3 3 7 13 8 2 3 2 3 2 3 4 5 3 4 7 4 4 6 3 2 4 7 3 1 1 2 1 2 2 3 1 1 3 1 2 0 2 6 2 1 1 0 2 2 2 1 3 5 8 6 7 8 8 7 6 7 6 7 9 9 8 9 8 11 9 8 5 6 6 5 7 8 9 9 9 9 8 7 6 7
4 7 5 4 7 5 1 6 18 11 2 5 4 3 4 3 5 3 2 5 4 2 4 8 4 3 5 7 3 5 2 2 1 1 1 3 0 3 1 1 1 2 2 3 3 2 3 4 1 3 5 3 4 3 3 8 8 6 5 5 5 5 7 8 6 6 8 7 8 7 5 9 9 9 8 8 9 8 6 7 9 9 9 9 8 8 8
6 2 2 5 5 3 3 6 5 2 3 5 4 3 2 4 3 2 2 3 2 3 4 3 4 5 5 5 4 6 6 1 2 2 2 1 2 2 3 2 0 1 1 3 2 2 1 1 2 6 6 5 4 3 4 6 6 5 5 5 5 5 6 5 6 4 5 5 5 6 6 6 6 7 8 9 10 11 10 9 9 9 9 8 8 7 6
5 5 1 2 1 3 4 4 3 3 2 2 4 4 3 2 1 2 2 4 4 3 5 5 5 7 7 8 5 3 3 2 1 0 1 1 1 2 3 1 1 2 1 3 3 1 2 2 2 2 4 6 6 2 5 7 6 7 5 6 7 7 7 8 7 4 6 6 5 5 5 7 7 6 7 8 8 9 9 9 8 8 10 7 7 7 6
4 5 2 2 2 3 2 4 5 2 3 5 4 3 3 4 3 3 2 1 1 3 3 2 1 2 1 4 4 2 3 0 1 1 0 1 0 1 2 1 1 1 2 1 2 1 3 2 3 6 6 7 6 6 5 8 7 7 6 6 7 8 9 8 8 6 5 5 5 5 5 5 5 6 5 7 5 4 4 7 10 8 7 7 7 6 6
5 4 2 1 3 2 4 4 3 2 1 1 3 4 6 4 4 4 3 4 3 3 5 10 7 9 6 3 4 1 1 1 0 1 1 1 1 1 1 2 3 3 1 1 1 3 4 2 5 7 8 7 7 6 5 5 5 6 5 4 5 7 7 7 6 6 5 4 4 2 3 3 3 3 3 5 9 9 7 5 5 7 6 6 6 5 4
4 3 1 1 2 3 3 1 2 1 4 4 2 3 5 9 9 7 7 3 3 5 7 5 6 6 4 3 3 1 1 2 1 1 2 1 0 0 2 2 1 1 1 1 0 0 1 2 3 1 2 5 6 6 6 7 7 9 7 4 5 6 6 6 5 5 5 5 4 4 3 2 4 4 4 6 6 9 11 9 7 7 6 6 6 5 4
4 2 2 1 2 3 1 2 3 3 2 3 4 3 5 4 6 6 4 3 4 6 10 9 8 6 4 2 5 4 1 1 1 2 1 0 2 1 2 0 1 1 1 1 1 3 3 4 6 7 5 6 6 6 7 7 7 7 9 7 5 6 6 6 5 4 4 4 4 4 3 3 5 7 5 4 6 6 8 8 7 8 7 7 6 5 4
1 1 1 2 1 3 1 2 4 3 3 2 4 5 6 6 5 3 2 6 6 7 7 6 7 6 5 5 3 1 0 0 1 2 1 0 1 1 1 2 1 0 3 2 1 1 1 2 5 4 5 4 4 5 6 6 7 8 8 7 6 6 5 6 5 5 4 5 5 5 4 5 4 6 7 6 4 5 6 6 7 7 7 7 5 5 4
1 2 2 1 3 2 3 3 3 1 2 6 5 5 3 4 4 6 4 3 4 7 8 8 8 6 2 2 2 5 4 1 0 2 1 2 0 1 1 1 0 1 1 3 3 3 2 4 5 6 5 4 6 7 6 6 5 7 7 7 6 6 5 5 4 4 4 5 5 5 5 6 6 6 8 8 6 4 5 6 6 6 6 6 6 6 5
3 2 3 2 2 2 2 1 4 2 4 3 2 2 6 9 8 8 5 5 7 5 7 7 5 5 2 1 3 2 2 2 2 2 0 0 2 2 2 2 1 0 2 2 2 1 2 3 2 1 5 4 4 7 6 6 8 7 7 7 6 6 5 5 5 4 4 4 5 6 6 6 7 7 7 7 8 5 4 5 6 5 5 6 5 5 5
4 3 2 2 1 2 1 2 3 0 3 2 1 2 4 6 7 9 7 1 4 5 4 4 3 4 2 2 1 1 0 2 2 0 1 1 1 1 2 3 2 2 1 1 2 2 2 1 3 3 5 6 5 6 7 5 6 6 6 6 6 6 5 5 4 4 4 5 5 6 6 7 7 8 9 8 6 5 5 6 5 5 5 5 6 5 5
3 3 2 2 1 1 1 4 5 4 2 3 2 1 2 5 4 2 2 4 6 6 5 2 1 2 2 2 1 2 3 2 2 2 3 2 1 2 3 2 3 3 2 1 1 2 1 5 6 6 5 6 6 6 6 6 5 5 5 5 4 4 4 4 4 4 4 5 6 7 7 6 6 7 6 7 7 7 6 5 5 5 6 5 4 4 3
0 1 2 0 1 2 2 1 1 2 1 1 1 3 1 2 0 0 2 6 7 8 7 4 2 2 2 3 3 2 0 1 1 2 2 1 1 3 2 3 3 6 6 5 4 3 3 5 6 6 5 5 5 5 6 6 7 6 5 5 5 5 5 4 5 6 6 5 6 6 6 6 6 7 7 7 7 6 7 5 4 4 4 4 3 3 3
Wind_Direction
343 342 343 337 341 341 336 337 340 350 350 3 348 325 352 360 252 273 294 292 280 138 287 285 287 257 243 263 259 252 259 240 276 288 291 285 269 335 71 344 38 35 1 352 16 187 198 195 210 200 216 232 205 220 170 178 146 132 252 132 260 132 86 94 286 310 293 305 248 270 306 121 70 311 274 82 188 173 176 167 174 114 135 77 43 60 249
341 342 348 343 343 341 339 340 346 354 14 355 320 5 349 299 288 312 288 292 172 118 217 289 268 264 284 279 283 293 276 279 278 268 271 74 3 33 5 356 106 246 196 72 353 316 309 256 188 278 211 260 233 159 172 158 110 149 229 141 249 154 298 131 320 0 343 348 345 347 336 23 152 225 283 264 185 77 87 94 79 100 228 157 122 163 241
340 339 342 346 344 345 343 347 349 356 356 351 348 1 305 279 248 232 295 315 150 173 190 201 276 303 316 325 310 316 313 281 281 214 295 342 93 69 342 196 280 114 235 37 331 38 95 306 278 183 355 249 134 212 156 140 151 180 182 134 97 83 178 100 114 117 153 175 194 242 259 245 270 22 16 19 6 120 106 122 108 105 109 58 108 127 266
340 339 341 344 346 349 354 354 356 351 348 350 342 332 317 1 6 297 309 350 336 336 338 0 352 332 329 320 294 295 311 310 321 38 14 20 348 128 206 278 306 37 24 21 7 351 18 53 297 51 229 191 144 177 158 167 125 137 122 141 88 158 137 114 155 146 184 204 215 250 138 67 76 25 46 16 65 66 118 100 106 139 155 61 300 148 148
344 344 344 344 346 354 356 358 357 351 343 345 336 290 184 319 76 340 337 325 29 344 319 14 5 323 314 303 305 314 322 313 328 28 18 7 359 337 54 352 22 0 30 10 346 360 337 3 17 299 213 284 187 104 132 106 203 164 154 150 85 79 344 254 163 182 196 206 227 230 130 99 99 73 11 47 75 119 123 136 161 158 101 35 327 146 127
343 344 343 346 349 352 358 356 359 350 341 338 337 8 271 26 288 6 25 305 309 358 331 346 325 312 326 274 279 287 307 317 350 326 347 336 33 44 326 24 57 66 65 12 29 337 343 47 6 326 329 307 11 90 2 86 147 91 326 76 114 145 163 271 132 262 243 54 2 79 71 57 75 82 71 68 68 98 104 80 126 124 129 147 178 82 76
335 343 344 347 349 350 356 355 355 358 336 355 11 42 326 260 310 305 12 343 315 241 265 290 299 302 302 268 280 293 316 299 287 247 315 4 342 58 342 312 322 60 63 71 48 354 16 350 338 353 331 290 57 51 346 337 287 98 350 34 118 93 241 219 107 305 325 60 85 94 97 86 71 60 65 74 70 70 93 92 70 87 95 110 105 86 74
329 338 344 346 349 350 353 351 355 356 341 340 16 61 0 21 352 335 343 288 286 282 291 305 317 307 329 331 286 304 337 332 308 319 22 360 303 109 254 289 316 15 63 75 54 306 156 196 310 313 351 322 36 254 181 199 309 69 116 234 330 111 264 228 48 56 11 75 100 91 92 95 83 70 69 75 82 66 59 81 89 89 78 87 90 86 75
322 328 337 344 346 350 351 352 357 351 358 15 35 314 5 343 324 329 320 317 288 293 306 337 320 313 337 355 340 339 350 328 257 260 184 178 221 308 266 278 329 337 36 44 325 281 25 228 227 259 266 272 243 127 294 150 169 124 53 27 324 85 254 58 69 63 11 46 96 88 78 73 80 80 75 70 74 77 31 69 28 112 123 102 86 87 99
320 323 333 339 343 348 350 355 354 355 350 248 297 309 0 320 302 308 300 284 291 301 308 315 345 330 336 335 330 335 322 316 282 310 297 251 217 239 289 290 91 308 18 333 285 287 305 284 272 264 263 253 270 217 214 167 158 155 176 185 95 157 100 34 56 66 80 160 103 94 91 73 52 52 100 95 88 108 100 61 45 64 116 99 111 143 185
315 321 328 335 339 343 349 350 351 0 359 27 352 327 353 353 337 340 303 297 295 317 327 319 8 302 328 334 333 333 323 319 294 186 268 340 312 234 214 274 161 235 237 279 261 249 262 258 271 292 262 243 281 299 267 220 163 149 156 100 306 77 79 254 129 111 156 91 95 83 64 62 220 240 282 106 109 97 87 75 72 38 93 140 151 140 171
314 317 321 325 333 338 344 346 351 351 12 323 318 288 267 303 310 288 291 306 290 313 349 299 344 316 326 331 329 322 322 326 309 193 180 246 239 275 330 11 86 354 254 231 300 299 274 305 322 339 357 347 312 315 141 172 226 167 141 133 143 119 132 266 108 111 151 203 69 62 59 122 234 321 193 114 104 90 90 82 69 91 97 98 96 106 123
310 312 313 318 324 331 335 343 339 335 338 324 294 270 300 322 303 291 289 276 279 334 337 317 316 302 325 329 329 319 313 317 328 338 323 47 317 310 276 311 304 256 269 3 340 13 37 323 299 272 304 341 337 19 108 167 204 205 201 130 130 155 165 188 41 93 48 33 56 83 171 220 79 87 87 93 93 100 85 53 33 54 96 111 104 118 127
303 304 306 310 314 315 318 328 330 327 330 332 312 255 266 271 289 307 300 325 286 282 324 312 318 341 339 327 327 322 322 340 340 356 17 321 320 274 293 304 250 263 326 356 24 43 7 37 7 7 330 358 354 6 263 188 197 186 205 231 159 138 96 104 38 40 108 178 97 119 147 89 55 96 158 143 141 146 121 124 269 91 115 110 120 125 128
298 300 302 303 305 307 305 313 327 327 318 318 296 275 261 269 261 274 317 281 288 292 239 231 331 331 320 319 343 335 341 340 355 338 315 315 352 330 289 331 318 302 15 41 355 28 90 61 23 2 333 26 360 282 309 177 43 20 332 14 51 124 133 218 103 338 108 111 86 47 34 63 269 252 236 174 162 133 121 109 108 13 122 133 128 143 147
295 296 296 297 298 301 306 305 307 315 312 314 295 275 248 254 274 279 270 281 319 304 243 351 327 312 330 322 341 319 339 334 338 309 342 355 334 346 340 336 324 331 42 63 50 46 27 83 292 64 29 281 253 305 344 325 34 338 32 54 77 32 76 125 106 156 53 67 100 131 127 233 226 274 313 120 128 121 109 79 111 229 184 174 140 147 154
292 290 290 290 292 294 299 299 297 302 303 308 304 299 268 222 223 230 261 268 230 249 336 337 353 336 327 335 346 4 347 344 348 353 343 342 332 329 309 339 315 354 79 68 9 62 30 35 61 124 275 272 2 205 299 47 360 339 337 19 54 60 6 68 87 90 104 123 87 87 159 145 279 272 249 158 186 109 65 68 242 238 184 186 147 147 154
286 286 285 285 286 291 293 291 288 286 297 309 292 302 290 282 245 252 255 248 274 276 243 3 8 355 20 16 302 286 298 324 332 306 11 287 311 0 326 333 329 329 60 93 51 68 63 85 62 76 27 283 303 49 47 311 60 256 347 313 36 34 13 41 105 101 94 101 93 50 357 293 262 276 288 272 267 71 83 170 217 197 164 200 153 154 156
284 281 280 278 281 282 285 289 293 297 305 306 301 279 249 239 257 269 308 300 239 249 300 333 342 313 299 305 262 288 314 317 300 10 324 349 334 318 289 250 297 337 358 94 61 95 102 288 317 118 94 324 21 79 297 44 300 308 19 8 29 24 57 334 59 58 80 121 103 174 218 235 225 272 260 253 64 80 163 226 186 140 151 175 154 143 157
283 279 276 275 275 273 276 283 288 301 309 316 312 290 291 294 291 275 254 258 261 275 290 291 300 290 316 312 312 317 326 315 22 32 30 313 295 329 359 14 335 11 345 32 51 237 101 101 192 87 33 297 328 156 47 344 16 105 43 217 106 252 92 1 98 160 49 37 73 32 101 257 236 312 338 16 108 224 205 129 95 138 138 143 149 137 158
279 282 279 274 270 268 270 275 278 284 291 302 309 305 296 272 261 243 230 237 282 295 291 247 256 292 303 280 262 262 264 259 289 337 291 290 287 354 27 254 290 340 331 17 39 302 145 31 357 135 206 132 248 56 151 243 346 311 139 139 120 178 81 184 322 169 129 102 100 191 214 241 297 140 157 237 184 158 151 126 117 120 126 134 128 124 140
273 275 277 273 269 266 263 265 272 277 276 276 281 286 279 273 283 282 298 277 244 243 276 313 304 285 279 270 266 254 247 254 257 258 291 300 303 262 228 277 280 320 287 357 14 342 9 281 77 60 64 335 14 118 150 71 62 290 339 70 35 318 156 184 129 292 131 187 205 245 249 240 300 90 127 119 114 126 152 117 131 130 117 137 123 141 140
268 273 276 276 271 266 262 262 264 265 266 265 264 246 256 312 313 327 332 293 266 255 268 270 281 281 278 273 256 242 245 232 241 244 234 250 294 316 279 315 314 259 294 76 57 249 250 23 264 159 80 97 139 81 35 124 166 348 61 330 146 123 124 132 87 59 111 78 199 238 0 14 28 40 80 112 103 83 110 111 104 80 130 140 131 142 142
260 265 268 273 273 267 261 260 257 258 254 236 221 263 271 286 308 339 311 250 230 311 299 233 226 269 246 268 309 243 228 233 217 229 223 205 250 297 326 274 251 338 329 274 213 264 277 270 243 122 117 231 85 72 104 35 22 255 82 49 5 275 85 56 104 187 69 92 316 55 67 31 67 81 56 59 69 74 93 98 99 120 103 86 91 115 117
255 257 261 267 271 269 263 256 253 255 242 230 237 255 276 285 266 230 265 274 219 153 247 317 245 246 262 277 292 281 272 260 240 209 213 207 205 227 244 243 263 248 283 297 329 9 359 319 333 30 92 263 105 98 238 110 311 136 83 227 59 6 54 84 83 75 121 193 224 163 55 81 127 132 114 96 83 70 57 81 95 92 75 80 95 97 86
251 254 259 261 262 265 264 256 251 243 235 228 202 234 242 257 278 288 281 268 269 260 278 278 275 279 322 329 297 268 293 300 288 233 198 204 203 197 237 298 315 289 276 273 262 236 225 264 205 194 109 297 87 126 197 199 176 133 130 201 192 161 72 147 159 105 48 37 331 60 61 46 37 43 55 107 118 103 85 82 85 85 81 78 64 75 94
248 250 253 255 260 263 261 259 249 239 237 222 212 232 247 266 263 260 256 280 332 264 228 252 279 302 352 306 277 292 291 286 285 241 211 212 213 207 208 255 279 317 333 316 263 184 219 224 81 357 145 213 125 165 146 30 117 112 106 264 18 63 80 147 92 101 147 171 192 157 123 186 233 177 149 132 125 107 103 94 89 96 99 95 91 76 76
245 246 247 251 255 258 260 255 246 238 234 229 217 241 252 259 246 244 254 258 241 266 333 302 294 288 304 275 269 267 283 276 263 235 202 211 221 223 229 243 254 284 324 357 340 357 348 26 265 250 133 243 61 44 99 163 66 46 97 229 169 133 189 150 147 159 199 229 206 176 134 138 181 175 176 149 146 120 114 113 115 111 117 117 109 97 75
242 243 244 246 248 252 254 248 244 231 222 208 228 258 268 252 252 244 246 257 277 282 281 267 264 284 255 273 310 302 281 273 244 210 201 220 229 228 219 222 236 220 288 285 243 275 247 246 196 151 209 202 97 197 49 116 114 185 230 239 183 218 168 167 175 156 219 198 180 162 145 158 197 186 161 158 151 124 123 126 123 124 121 108 100 110 110
238 237 240 242 246 251 248 249 241 226 198 157 195 247 274 274 212 216 214 214 207 277 264 324 317 263 305 303 276 267 282 299 220 186 192 222 243 246 222 215 250 223 205 214 162 296 258 291 291 294 298 65 124 167 98 178 103 248 255 270 239 152 172 197 155 141 182 199 160 175 154 148 155 163 153 146 147 131 130 135 131 121 114 109 104 98 104
236 236 236 238 243 246 246 245 236 209 173 171 172 209 194 235 241 197 188 190 185 244 265 257 254 316 305 243 245 261 268 276 243 189 205 217 226 229 229 176 239 179 301 322 234 234 232 295 306 301 320 51 107 115 170 112 134 284 282 253 194 158 179 196 229 201 139 144 147 129 121 138 133 103 108 139 152 131 108 111 128 124 124 111 115 117 108
236 235 234 236 240 244 246 241 229 204 194 197 199 194 171 122 104 351 339 203 142 213 259 288 300 280 265 279 251 222 212 228 218 197 220 172 246 230 262 173 231 204 168 206 225 342 268 219 174 279 55 292 66 102 71 96 139 196 231 216 145 136 133 116 105 99 103 129 108 95 111 140 160 149 178 172 148 130 126 135 133 130 126 122 122 115 119
237 233 230 231 235 241 244 239 225 211 205 225 259 281 284 282 280 305 279 190 158 239 224 231 230 249 258 252 303 281 219 175 197 154 244 217 232 199 238 234 198 310 261 214 295 215 238 243 290 177 256 8 94 111 100 158 203 211 193 183 170 150 141 126 117 114 120 142 149 156 172 170 191 175 146 148 141 137 137 136 131 114 109 108 104 93 80
236 233 223 224 233 239 241 234 218 219 234 233 225 228 247 259 274 264 279 260 211 213 237 223 224 217 260 299 307 277 188 154 185 154 205 256 187 156 226 189 208 148 281 176 254 316 320 60 194 233 346 342 63 82 51 246 186 173 195 179 148 113 111 105 114 119 105 124 99 128 139 142 131 125 118 126 138 144 138 130 120 113 116 116 113 113 113
230 229 222 220 230 236 233 215 206 212 211 220 253 245 244 258 233 212 232 247 182 194 206 219 238 268 287 311 234 270 231 116 174 186 174 249 190 181 220 153 330 171 278 123 1 185 182 255 183 128 220 269 77 116 229 196 189 182 164 139 153 116 88 97 264 234 115 113 91 104 119 122 122 126 135 138 135 126 117 125 128 125 121 122 127 128 120
223 220 217 216 229 225 225 214 210 187 210 214 212 220 236 225 177 193 210 224 237 196 184 213 182 217 179 231 244 266 263 186 182 175 183 150 204 254 138 110 159 239 213 132 211 272 211 250 91 258 283 133 216 181 205 174 173 180 171 168 183 154 172 172 178 156 108 111 111 122 128 132 132 141 139 132 125 121 121 118 114 120 124 130 135 132 117
212 211 204 213 219 219 222 211 159 201 206 183 203 332 191 148 125 199 223 237 223 240 235 213 210 220 184 228 286 279 347 205 176 144 214 162 201 229 128 96 197 246 134 263 251 170 245 273 110 143 184 184 244 224 178 172 173 174 185 177 184 187 144 157 148 121 104 104 114 126 131 125 120 118 117 123 126 119 116 129 138 136 140 142 144 133 140
205 192 175 202 197 213 200 200 191 192 207 215 139 92 215 186 190 192 216 225 206 188 224 194 244 245 191 247 261 257 342 282 357 143 217 203 119 219 145 145 220 136 209 208 235 190 175 169 163 154 252 249 244 194 179 190 180 188 175 166 172 168 158 160 132 110 112 109 103 122 122 120 120 138 129 135 130 130 136 138 135 138 139 141 147 143 134
197 195 201 205 220 215 203 211 170 156 146 93 168 206 178 160 188 221 200 179 165 199 188 204 232 189 177 207 259 311 262 305 321 329 166 257 124 285 120 174 272 130 265 180 272 149 217 299 303 139 239 272 212 238 183 188 194 185 178 175 165 165 152 165 150 139 149 168 172 172 150 150 147 166 148 127 124 129 137 134 136 140 141 144 145 151 149
167 193 199 193 224 230 206 161 151 131 116 172 203 209 195 181 211 214 183 175 155 176 167 220 210 180 195 213 226 301 276 178 211 328 152 304 346 152 229 122 262 117 184 177 242 171 126 176 242 160 239 255 245 252 186 174 186 201 179 165 151 156 152 158 170 164 153 165 161 171 170 157 152 154 160 143 134 132 140 143 145 148 147 154 158 152 160
189 186 208 230 210 183 192 126 112 89 162 190 182 227 208 178 217 225 159 204 184 176 184 192 137 191 214 219 217 243 284 288 218 155 129 193 254 84 113 182 238 103 224 200 262 99 108 125 176 190 227 229 219 229 180 156 170 171 173 153 144 134 130 134 139 140 118 131 148 153 164 159 149 155 160 152 148 151 159 157 157 157 152 150 156 168 166
172 198 209 302 280 105 120 136 161 144 189 206 203 189 200 201 177 212 221 165 200 150 182 180 172 177 201 198 195 185 272 224 202 134 107 235 294 124 191 174 62 117 188 228 161 96 112 199 188 232 245 226 229 198 155 150 160 152 166 140 129 126 120 113 105 101 125 133 143 156 170 166 165 167 167 159 162 162 161 158 159 164 165 163 151 145 143
296 299 327 261 202 165 181 179 173 192 164 195 206 166 186 205 196 164 183 246 253 208 170 157 207 153 188 148 255 239 223 290 40 316 79 229 295 58 113 148 107 173 235 214 107 107 180 193 182 237 228 211 204 188 184 162 167 151 161 148 135 136 126 116 112 115 116 117 122 132 150 160 185 187 174 152 132 136 157 161 164 161 154 147 142 135 137
247 251 208 236 235 225 174 197 175 168 186 211 170 175 147 176 196 174 169 202 181 188 170 167 181 161 184 165 155 238 337 330 92 91 296 255 102 165 95 158 193 239 74 55 99 151 204 206 201 210 215 206 200 181 172 154 151 140 128 135 123 111 107 108 104 93 82 79 82 95 93 117 118 116 134 145 151 152 153 147 151 144 142 128 126 134 145
218 176 160 58 288 222 147 276 253 183 187 213 209 195 179 183 179 176 182 191 173 180 157 159 144 142 159 171 97 232 198 228 312 110 242 157 112 245 118 225 238 41 102 202 140 137 144 236 267 250 193 192 198 183 180 164 156 147 151 132 118 115 113 111 118 113 120 110 119 105 104 127 111 115 130 143 149 145 143 149 153 137 134 125 122 130 149
200 130 125 130 250 276 192 149 148 185 221 175 210 193 161 175 150 185 220 162 153 151 162 169 157 146 180 190 138 193 231 145 104 224 232 241 120 199 226 205 80 84 49 47 89 173 206 232 219 214 210 191 179 172 167 172 166 143 128 142 162 144 141 132 133 129 136 116 99 97 111 111 120 124 130 137 139 138 137 140 140 134 129 125 140 152 165
62 235 215 158 201 257 212 164 205 210 155 180 230 183 175 181 172 180 194 163 175 164 158 160 159 156 145 167 133 96 243 288 186 256 99 56 175 256 9 97 195 165 128 143 168 244 259 259 246 223 222 211 148 146 155 158 160 156 151 148 144 138 131 122 128 132 149 118 100 96 102 110 119 122 121 107 100 110 115 118 123 127 133 146 153 143 139
207 231 223 175 222 197 190 218 197 247 196 180 208 189 139 109 154 207 244 172 162 157 159 153 153 150 168 306 87 159 180 237 121 288 163 213 338 56 37 58 288 228 155 147 210 223 239 248 236 210 187 180 144 139 141 143 144 138 133 128 123 115 110 119 126 143 136 121 119 119 125 128 125 119 118 122 116 110 114 118 123 120 121 123 124 126 126
269 225 200 220 216 196 219 155 141 190 219 229 244 152 147 175 193 211 212 188 185 168 162 150 152 113 159 219 98 115 172 237 141 238 290 49 107 176 138 155 129 35 263 159 202 215 237 265 318 175 126 121 129 127 129 132 129 124 119 120 127 134 129 135 151 159 139 121 128 132 137 135 122 112 108 109 113 120 120 120 116 113 118 120 116 112 106
247 263 264 241 334 297 297 61 74 251 183 172 5 190 172 156 164 194 231 136 123 101 52 32 37 95 191 130 96 96 182 256 156 74 65 127 185 164 84 115 191 178 242 299 159 227 249 119 124 128 114 112 104 108 111 110 107 109 115 114 108 106 125 137 145 153 146 140 139 138 137 128 126 127 129 131 134 125 104 96 99 103 102 106 108 107 115
234 231 237 266 209 248 39 139 160 226 221 177 206 227 167 173 160 164 324 128 129 93 68 79 252 126 98 67 125 111 226 226 98 155 158 188 223 96 136 164 217 181 187 227 212 269 212 111 106 106 94 95 104 101 104 110 109 103 95 94 100 103 105 116 128 123 120 128 129 125 124 130 135 129 126 117 110 105 96 92 97 103 100 97 102 113 118
83 257 218 162 287 231 174 193 186 180 129 140 86 342 9 122 122 215 275 121 115 122 139 160 163 100 86 138 196 180 185 60 138 130 77 287 139 118 188 181 190 174 152 126 70 17 29 81 98 107 111 108 100 93 86 78 74 69 76 90 104 108 110 106 110 110 106 101 109 113 113 115 115 112 110 103 102 99 102 107 105 106 108 115 122 132 141